#timestamp,LO_Frequency,Hit,StdDev 
1521410415.0,286047002.8,N
1521410415.9,286047002.8,N
1521410435.8,286047002.0,N
1521410455.6,286046999.8,N
1521410475.4,286047000.9,N
1521410495.3,286047000.9,N
1521410515.1,286047000.0,N
1521410535.8,286047000.7,N
1521410555.7,286046998.4,N
1521410575.5,286046998.8,N
1521410595.4,286046999.1,N
1521410615.2,286046997.2,N
1521410635.0,286046997.3,N
1521410635.9,286046997.3,N
1521410655.8,286046995.0,Y
1521410675.6,286046995.6,P
1521410695.5,286046997.8,N
1521410715.3,286046997.0,N
1521410735.1,286046999.2,N
1521410755.9,286046997.2,N
1521410775.7,286046997.9,N
1521410795.5,286046994.2,Y
1521410815.4,286046997.3,P
1521410835.2,286046995.6,P
1521410855.1,286046998.0,N
1521410856.0,286046998.0,N
1521410875.8,286046996.3,Y
1521410895.6,286046999.2,P
1521410915.5,286046999.0,N
1521410935.3,286046999.2,N
1521410955.2,286046996.6,Y
1521410975.9,286046998.7,P
1521410995.7,286046999.0,P
1521411015.6,286046999.3,P
1521411035.4,286046999.0,Y
1521411055.2,286047000.2,P
1521411075.1,286046998.1,P
1521411076.0,286046998.1,N
1521411095.8,286047001.2,N
1521411115.7,286047000.5,N
1521411135.5,286047004.4,Y
1521411155.3,286047004.8,P
1521411175.2,286047003.9,N
1521411195.0,286047002.5,N
1521411195.9,286047002.5,N
1521411215.8,286047001.7,N
1521411235.6,286047001.6,N
1521411255.4,286047004.2,N
1521411275.3,286047002.1,N
1521411295.1,286046999.9,N
1521411315.8,286047001.0,N
1521411335.7,286046999.3,N
1521411355.5,286046999.0,N
1521411375.3,286046999.6,N
1521411395.2,286046998.4,N
1521411415.0,286047001.0,N
1521411415.9,286047001.0,N
1521411435.8,286046999.4,N
1521411455.6,286046999.0,N
1521411475.4,286046996.8,N
1521411495.3,286046997.3,N
1521411515.1,286046996.6,N
1521411535.9,286046997.6,N
1521411555.7,286046995.2,N
1521411575.5,286046995.0,N
1521411595.4,286046997.3,N
1521411615.2,286046997.8,N
1521411635.0,286046997.3,N
1521411635.9,286046997.3,N
1521411655.8,286046995.3,N
1521411675.6,286046996.7,N
1521411695.5,286046996.8,N
1521411715.3,286046995.0,N
1521411735.1,286046996.3,N
1521411755.9,286046996.1,N
1521411775.7,286046996.4,N
1521411795.6,286046996.1,N
1521411815.4,286046997.5,N
1521411835.2,286046995.0,N
1521411855.1,286046997.9,N
1521411856.0,286046997.9,N
1521411875.8,286046998.0,N
1521411895.6,286046998.0,N
1521411915.5,286046997.5,N
1521411935.3,286046995.5,Y
1521411955.2,286046996.8,P
1521411975.9,286046997.2,P
1521411995.7,286046999.0,P
1521412015.6,286046996.7,Y
1521412035.4,286046999.8,P
1521412055.2,286047000.0,N
1521412075.1,286047002.0,N
1521412076.0,286047002.0,N
1521412095.8,286047002.1,N
1521412115.7,286047002.5,N
1521412135.5,286047000.9,N
1521412155.3,286046998.1,N
1521412175.2,286047002.4,N
1521412195.0,286047001.5,N
1521412195.9,286047001.5,N
1521412215.8,286047002.1,N
1521412235.6,286047001.6,N
1521412255.4,286047001.9,N
1521412275.3,286047001.6,N
1521412295.1,286047004.3,N
1521412315.8,286047002.3,N
1521412335.7,286047004.0,N
1521412355.5,286047002.2,N
1521412375.4,286047003.9,N
1521412395.2,286047001.5,N
1521412415.0,286047004.4,N
1521412415.9,286047004.4,N
1521412435.8,286047001.8,N
1521412455.6,286047002.0,N
1521412475.4,286047002.8,N
1521412495.3,286047002.6,N
1521412515.1,286047001.7,N
1521412535.9,286047001.9,N
1521412555.7,286047002.5,N
1521412575.5,286047004.4,Y
1521412595.4,286046999.9,P
1521412615.2,286046999.9,N
1521412635.1,286047000.3,N
1521412636.0,286047000.3,N
1521412655.8,286046999.9,N
1521412675.6,286047002.7,Y
1521412695.5,286047002.3,P
1521412715.3,286046999.7,N
1521412735.1,286047002.6,N
1521412755.9,286047000.0,N
1521412775.7,286047000.0,N
1521412795.6,286047001.2,N
1521412815.4,286046998.5,N
1521412835.2,286047001.0,N
1521412855.1,286046998.2,N
1521412856.0,286046998.2,N
1521412875.8,286047000.4,N
1521412895.6,286047000.8,N
1521412915.5,286047000.8,N
1521412935.3,286047000.5,N
1521412955.2,286046999.9,N
1521412975.0,286047002.1,N
1521412975.9,286047002.1,N
1521412995.7,286047001.5,N
1521413015.6,286047001.9,N
1521413035.4,286047000.3,N
1521413055.3,286047002.5,N
1521413075.1,286047001.7,N
1521413076.0,286047001.7,N
1521413095.8,286047004.0,Y
1521413115.7,286047003.3,P
1521413135.5,286047005.6,P
1521413155.4,286047001.7,N
1521413175.2,286047002.5,N
1521413195.0,286047002.1,N
1521413195.9,286047002.1,N
1521413215.8,286047002.4,N
1521413235.6,286047000.6,N
1521413255.4,286046999.9,N
1521413275.3,286047000.4,N
1521413295.1,286047000.1,N
1521413315.9,286047000.2,N
1521413335.7,286047002.5,N
1521413355.5,286047002.6,N
1521413375.4,286047003.9,N
1521413395.2,286047004.1,N
1521413415.1,286047003.8,N
1521413416.0,286047003.8,N
1521413435.8,286047002.6,N
1521413455.6,286046999.7,N
1521413475.5,286047000.2,N
1521413495.3,286047002.7,N
1521413515.1,286047003.7,N
1521413535.9,286047003.8,N
1521413555.7,286047003.1,N
1521413575.6,286047003.1,N
1521413595.4,286047004.2,N
1521413615.2,286047001.8,N
1521413635.1,286047005.3,Y
1521413636.0,286047005.3,P
1521413655.8,286047002.1,N
1521413675.7,286047002.7,N
1521413695.5,286047000.6,N
1521413715.3,286047001.0,N
1521413735.2,286047001.5,N
1521413755.9,286047002.1,N
1521413775.7,286047001.8,N
1521413795.6,286047003.8,N
1521413815.4,286047004.4,Y
1521413835.3,286047000.7,P
1521413855.1,286046999.0,N
1521413856.0,286046999.0,N
1521413875.8,286046999.5,N
1521413895.7,286046998.7,N
1521413915.5,286046999.9,N
1521413935.3,286047001.5,N
1521413955.2,286047002.5,N
1521413975.0,286047002.3,N
1521413975.9,286047002.3,N
1521413995.8,286047001.2,N
